Location: Unspecified
(0.0000°N, 0.0000°E)
Time: 01:47:05
(UTC+00:00)

Envisat - Pass Details

Date: 19 March 2018
Orbit: 764 x 766 km, 98.2° (Epoch: 17 June)

Event Time Altitude Azimuth Distance (km) Brightness Sun altitude
Exits shadow 19:24:45 28° 49° (NE) 1,418 4.0 -19.3°
Drops below altitude 10° 19:27:51 10° 16° (NNE) 2,290 5.3 -20.0°
Sets 19:30:22 0° 6° (N) 3,213 6.2 -20.7°
